RH
30 31 30 28 25 24 23 22 21 19 22 26 27 28 28 28 29 29 29 26 23 22 21 20 20 30 39
31 30 30 29 27 26 24 23 22 21 21 22 25 27 25 25 26 27 27 28 28 25 23 24 24 22 24
33 34 33 32 32 33 32 30 27 23 25 23 20 17 20 24 25 26 27 26 27 28 28 25 23 21 20
36 37 38 35 36 42 40 34 32 34 27 20 19 16 16 18 21 23 25 27 31 32 32 32 29 27 25
38 38 38 41 44 42 43 46 38 34 24 18 17 20 20 17 15 17 23 31 35 40 41 37 35 35 34
42 42 45 48 45 49 50 45 36 29 29 22 23 24 23 22 22 23 24 32 41 42 44 45 44 41 36
52 51 49 49 53 53 46 47 41 37 40 32 33 32 26 24 21 26 35 37 39 42 46 46 45 43 44
46 48 50 50 54 54 56 60 57 56 55 52 44 39 32 27 24 26 32 43 44 40 44 44 44 45 45
55 58 59 60 68 75 73 76 71 64 52 55 45 45 44 42 36 34 30 31 36 37 33 33 36 43 44
50 54 61 61 67 70 71 69 63 59 48 60 58 65 59 45 41 34 28 23 25 25 26 28 28 37 38
63 64 64 68 69 69 69 75 74 67 62 69 66 64 64 54 41 31 32 22 22 22 26 30 31 33 37
73 72 74 74 73 71 67 69 73 73 66 61 65 64 58 51 43 35 31 28 34 30 30 31 36 38 39
78 78 78 77 77 75 71 69 63 56 54 52 52 51 54 54 51 46 46 36 42 41 38 39 38 38 40
83 82 78 78 76 67 59 55 56 49 49 49 52 57 60 59 60 55 54 48 45 46 52 51 46 45 43
80 80 77 67 56 54 54 53 64 61 52 53 56 63 66 65 63 63 58 55 54 55 64 57 51 48 49
78 73 65 56 54 54 60 62 65 63 65 67 68 70 69 63 71 69 68 69 69 63 70 70 57 50 53
68 60 56 52 52 51 56 65 68 72 72 73 75 82 82 74 62 87 84 77 80 74 74 73 64 50 62